[[{"header":{"parameterUnit":"m.s-1","parameterCategory":1,"la1":30.2991,"la2":30.254,"lo1":-89.0895,"lo2":-89.0444,"dy":0.0017,"dx":0.0017,"nx":28,"ny":28,"refTime":"2024-02-08T03:00:00:Z","depth":0,"parameterNumber":2,"parameterNumberName":"U-component_of_WINDS"},"data":[0,0,0,0,0,0,0,0,0,0,0,0,0,0,0,0,0,0,0,0,0,0,0,0,0,0,0,0,0,0,0,0,0,0,0,0,0,0,0,0,0,0,0,0,0,0,0,0,0,0,0,0,0,0,0,0,0,0,-3.1874,-3.1876,0,-3.2068,-3.207,-3.2073,-3.2111,-3.2109,-3.2108,-3.2106,-3.2308,-3.2315,-3.2321,0,0,0,0,0,0,0,0,0,0,0,0,0,-3.1537,-3.1543,-3.1873,-3.1876,-3.1878,-3.2068,-3.2071,-3.2073,-3.2111,-3.2109,-3.2107,-3.2106,-3.2306,-3.2314,-3.2322,0,0,0,0,0,0,0,0,0,0,0,0,0,-3.1703,-3.1545,-3.1873,-3.192,-3.1926,-3.2067,-3.2071,-3.2074,-3.2112,-3.2109,-3.2107,-3.2105,-3.2303,-3.2313,-3.2323,-3.2432,0,0,-3.2354,-3.2358,0,0,0,0,0,0,0,0,-3.1693,-3.1715,-3.1911,-3.1917,-3.1924,-3.2063,-3.2026,-3.2194,-3.2112,-3.2041,-3.2106,-3.2104,-3.2228,-3.2245,-3.2286,-3.2441,-3.245,-3.2355,-3.2361,-3.2366,-3.2368,0,0,0,0,0,0,0,-3.1682,-3.1707,-3.1951,-3.1913,-3.1922,-3.1932,-3.1953,-3.2058,-3.2145,-3.2047,-3.205,-3.2073,-3.2232,-3.2276,-3.2291,-3.2453,-3.2355,-3.2364,-3.237,-3.2374,-3.2707,-3.271,0,0,0,0,0,0,-3.1662,-3.1697,-3.1944,-3.1956,-3.1801,-3.194,-3.1964,-3.2021,-3.2144,-3.2161,-3.2075,-3.2074,-3.226,-3.2279,-3.2298,-3.2434,-3.2365,-3.2375,-3.2381,-3.2705,-3.2708,-3.2711,0,0,0,0,0,0,-3.1654,-3.1683,-3.1936,-3.1828,-3.1861,-3.1948,-3.2012,-3.2026,-3.207,-3.2165,-3.2181,-3.2104,-3.2259,-3.2284,-3.2398,-3.2441,-3.238,-3.2389,-3.2701,-3.2706,-3.2709,-3.2705,0,0,0,0,0,0,-3.1644,-3.168,-3.1722,-3.1828,-3.1866,-3.2032,-3.2015,-3.2031,-3.2088,-3.2088,-3.2197,-3.2212,-3.2259,-3.2383,-3.2408,-3.2454,-3.2397,-3.2698,-3.2703,-3.2708,-3.2702,-3.2708,-3.2714,0,0,0,0,0,-3.1632,-3.1713,-3.1724,-3.1753,-3.192,-3.2034,-3.2056,-3.2108,-3.2091,-3.2134,-3.2195,-3.2209,-3.2433,-3.2394,-3.2423,-3.2473,-3.2695,-3.2702,-3.2708,-3.2699,-3.2707,-3.2714,0,0,0,0,0,0,-3.161,-3.1728,-3.1741,-3.1859,-3.1936,-3.2041,-3.2096,-3.2115,-3.2199,-3.2197,-3.2258,-3.2282,-3.2392,-3.2444,-3.2399,-3.2585,-3.2563,-3.2575,-3.2546,-3.2555,-3.2561,-3.2546,-3.2405,0,0,0,0,0,-3.1619,-3.1701,-3.18,-3.1894,-3.1933,-3.2008,-3.206,-3.2092,-3.2176,-3.2209,-3.2278,-3.2359,-3.2447,-3.2504,-3.2591,-3.271,-3.2734,-3.2758,-3.2765,-3.2769,-3.2779,-3.2846,-3.2858,-3.2731,-3.2731,-3.2731,0,0,-3.1638,-3.1712,-3.1761,-3.1892,-3.1956,-3.204,-3.2035,-3.2125,-3.2188,-3.2223,-3.2334,-3.2388,-3.2482,-3.2599,-3.2654,-3.2646,-3.2819,-3.2777,-3.278,-3.2787,-3.2853,-3.2865,-3.2876,-3.2735,-3.2735,-3.2734,0,0,-3.1715,-3.178,-3.1865,-3.193,-3.2026,-3.2076,-3.2097,-3.2199,-3.2236,-3.2349,-3.2376,-3.2453,-3.2605,-3.2671,-3.2724,-3.2828,-3.2844,-3.2854,-3.2887,-3.2951,-3.2961,-3.297,-3.3007,-3.3019,-3.2864,-3.2864,-3.2864,0,-3.1726,-3.1854,-3.1907,-3.1996,-3.2053,-3.2088,-3.2175,-3.2236,-3.2356,-3.2395,-3.2384,-3.2575,-3.2641,-3.2773,-3.2799,-3.2841,-3.2867,-3.2842,-3.2955,-3.2965,-3.2974,-3.301,-3.3024,-3.2864,-3.2864,-3.2864,-3.2864,0,-3.1863,-3.1952,-3.2009,-3.2124,-3.2188,-3.2276,-3.2343,-3.2401,-3.2429,-3.248,-3.2595,-3.2676,-3.2779,-3.2814,-3.2842,-3.2951,-3.2943,-3.2943,-3.2922,-3.2986,-3.3021,-3.3035,-3.2865,-3.2865,-3.2865,-3.2865,0,0,-3.1931,-3.2074,-3.2094,-3.2147,-3.2257,-3.2327,-3.2417,-3.2517,-3.2566,-3.2649,-3.2726,-3.2853,-3.2854,-3.2915,-3.2951,-3.3008,-3.3085,-3.3002,-3.3005,-3.3013,-3.321,-3.3208,-3.3223,-3.3097,-3.31,-3.3102,-3.3201,0,-3.2021,-3.2181,-3.2232,-3.2366,-3.2448,-3.2483,-3.2562,-3.2638,-3.2688,-3.2766,-3.2823,-3.2912,-3.2907,-3.2943,-3.3001,-3.3063,-3.3125,-3.3057,-3.3169,-3.3172,-3.3143,-3.3241,-3.3239,-3.3329,-3.3215,-3.3218,-3.3219,0,-3.2147,-3.223,-3.2372,-3.2472,-3.2509,-3.2578,-3.2675,-3.2749,-3.2837,-3.287,-3.2937,-3.2969,-3.3065,-3.304,-3.3174,-3.3126,-3.3176,-3.3213,-3.3218,-3.3229,-3.3199,-3.3254,-3.3359,-3.3372,-3.3241,-3.3239,-3.3238,0,-3.2181,-3.2329,-3.2433,-3.2478,-3.2597,-3.2645,-3.2697,-3.2782,-3.284,-3.2925,-3.2963,-3.3058,-3.311,-3.3184,-3.3241,-3.3218,-3.337,-3.3349,-3.34,-3.3398,-3.3429,-3.3426,-3.3543,-3.3463,-3.3462,-3.3462,-3.3462,0,-3.2276,-3.2361,-3.245,-3.2514,-3.2611,-3.267,-3.2764,-3.2818,-3.2894,-3.297,-3.3007,-3.3077,-3.3149,-3.3229,-3.3275,-3.3379,-3.3402,-3.3432,-3.3443,-3.3428,-3.3424,-3.346,-3.3455,-3.3466,-3.3465,-3.3464,-3.3464,0,-3.2329,-3.2393,-3.2508,-3.2612,-3.264,-3.2707,-3.2796,-3.286,-3.2912,-3.3007,-3.3033,-3.3115,-3.3212,-3.3276,-3.34,-3.3431,-3.3543,-3.3553,-3.3513,-3.3518,-3.3565,-3.3559,-3.3708,-3.373,-3.3636,-3.3636,-3.3637,0,-3.2385,-3.2451,-3.2562,-3.2615,-3.2667,-3.2752,-3.281,-3.2871,-3.2931,-3.3037,-3.3088,-3.3187,-3.3269,-3.3421,-3.3493,-3.3588,-3.36,-3.3646,-3.3614,-3.3597,-3.36,-3.3595,-3.3602,-3.365,-3.3651,-3.3651,-3.3652,0,-3.2477,-3.2505,-3.2588,-3.2682,-3.2751,-3.2828,-3.2906,-3.2947,-3.3022,-3.3088,-3.3186,-3.325,-3.3376,-3.3474,-3.3575,-3.363,-3.3654,-3.3661,-3.3678,-3.3663,-3.3636,-3.3651,-3.3525,-3.3657,-3.3657,-3.3656,-3.3656,-3.3656,-3.2533,-3.2594,-3.2681,-3.2772,-3.2837,-3.2908,-3.2973,-3.3034,-3.3117,-3.3223,-3.3255,-3.3357,-3.3445,-3.3584,-3.364,-3.3722,-3.3718,-3.3742,-3.3748,-3.3753,-3.3752,-3.3624,-3.3741,-3.3741,-3.3741,-3.3741,-3.3741,0,-3.2626,-3.2684,-3.2767,-3.2874,-3.2946,-3.2962,-3.3049,-3.3108,-3.3198,-3.3277,-3.3357,-3.347,-3.3566,-3.3645,-3.3743,-3.3794,-3.3807,-3.3817,-3.3814,-3.3826,-3.3751,-3.3726,-3.3805,-3.3805,-3.3805,-3.3805,-3.3805,-3.3805,-3.2683,-3.2786,-3.2824,-3.2961,-3.3019,-3.3118,-3.3167,-3.3234,-3.3297,-3.3422,-3.3501,-3.3551,-3.3631,-3.3736,-3.3824,-3.3845,-3.3879,-3.3887,-3.391,-3.3839,-3.3831,-3.3824,-3.3801,-3.3894,-3.3895,-3.3979,-3.3979,-3.398]},{"header":{"parameterUnit":"m.s-1","parameterCategory":1,"la1":30.2991,"la2":30.254,"lo1":-89.0895,"lo2":-89.0444,"dy":0.0017,"dx":0.0017,"nx":28,"ny":28,"refTime":"2024-02-08T03:00:00:Z","depth":0,"parameterNumber":3,"parameterNumberName":"V-component_of_WINDS"},"data":[0,0,0,0,0,0,0,0,0,0,0,0,0,0,0,0,0,0,0,0,0,0,0,0,0,0,0,0,0,0,0,0,0,0,0,0,0,0,0,0,0,0,0,0,0,0,0,0,0,0,0,0,0,0,0,0,0,0,2.8317,2.8319,0,2.8484,2.8485,2.8487,2.8538,2.8537,2.8537,2.8536,2.8709,2.8714,2.8719,0,0,0,0,0,0,0,0,0,0,0,0,0,2.8046,2.805,2.8317,2.8319,2.8321,2.8483,2.8486,2.8488,2.8538,2.8537,2.8536,2.8535,2.8707,2.8713,2.872,0,0,0,0,0,0,0,0,0,0,0,0,0,2.8183,2.8052,2.8316,2.8366,2.8372,2.8483,2.8486,2.8488,2.8539,2.8537,2.8536,2.8535,2.8705,2.8713,2.8721,2.8796,0,0,2.8745,2.8749,0,0,0,0,0,0,0,0,2.8175,2.8193,2.8356,2.8362,2.8369,2.8489,2.8454,2.8592,2.8539,2.8475,2.8536,2.8534,2.8637,2.865,2.8684,2.8804,2.8811,2.8746,2.8751,2.8755,2.8757,0,0,0,0,0,0,0,2.8166,2.8186,2.8383,2.8359,2.8367,2.8381,2.8399,2.848,2.8561,2.8481,2.8485,2.8504,2.864,2.8677,2.8689,2.8814,2.8746,2.8753,2.8758,2.8761,2.9006,2.9008,0,0,0,0,0,0,2.8147,2.8178,2.8377,2.8388,2.8267,2.8386,2.8407,2.8452,2.856,2.8576,2.8505,2.8505,2.8663,2.8679,2.8695,2.8793,2.8754,2.8762,2.8767,2.9005,2.9007,2.9008,0,0,0,0,0,0,2.8141,2.8165,2.8371,2.8284,2.8311,2.8392,2.8443,2.8456,2.8492,2.8578,2.8593,2.8527,2.8663,2.8684,2.8771,2.8799,2.8766,2.8773,2.9003,2.9005,2.9008,2.8986,0,0,0,0,0,0,2.8133,2.8162,2.819,2.8284,2.8316,2.8442,2.8444,2.846,2.8506,2.8508,2.8603,2.8618,2.8664,2.8759,2.8779,2.881,2.8779,2.9001,2.9004,2.9007,2.8985,2.8988,2.899,0,0,0,0,0,2.8123,2.8178,2.8191,2.8215,2.8353,2.8444,2.8462,2.8513,2.8508,2.8538,2.8594,2.8615,2.8792,2.8767,2.879,2.8824,2.8999,2.9003,2.9007,2.8984,2.8987,2.899,0,0,0,0,0,0,2.8085,2.8191,2.8207,2.8293,2.8359,2.8452,2.8492,2.8515,2.8585,2.8584,2.8645,2.8667,2.875,2.8795,2.8765,2.8904,2.8897,2.8905,2.8871,2.8875,2.8878,2.8866,2.8786,0,0,0,0,0,2.8087,2.8151,2.824,2.8307,2.834,2.841,2.8451,2.8485,2.8556,2.8585,2.8647,2.8716,2.8788,2.8834,2.8904,2.8991,2.9014,2.9026,2.9029,2.903,2.9038,2.909,2.9098,2.9021,2.9021,2.9021,0,0,2.8091,2.8156,2.8193,2.8301,2.8357,2.8424,2.8433,2.8503,2.8554,2.8596,2.8683,2.873,2.8812,2.89,2.8941,2.894,2.9064,2.9035,2.9036,2.9043,2.9095,2.9102,2.9109,2.9023,2.9023,2.9022,0,0,2.8133,2.8188,2.8251,2.8306,2.839,2.8436,2.8451,2.8542,2.8575,2.8663,2.8697,2.8758,2.888,2.8937,2.8982,2.9048,2.9071,2.9069,2.9084,2.9134,2.914,2.9146,2.9172,2.9181,2.9076,2.9076,2.9076,0,2.8128,2.8229,2.8281,2.835,2.8398,2.8438,2.8505,2.8556,2.8658,2.8691,2.8688,2.8843,2.89,2.9004,2.902,2.9054,2.9075,2.906,2.9135,2.9141,2.9148,2.9173,2.9183,2.9075,2.9075,2.9075,2.9075,0,2.822,2.829,2.8331,2.8429,2.8482,2.8548,2.8612,2.8659,2.8689,2.8736,2.8826,2.8897,2.8983,2.901,2.9039,2.9119,2.9116,2.9123,2.9117,2.9153,2.9179,2.9189,2.9074,2.9074,2.9075,2.9075,0,0,2.8244,2.837,2.8385,2.8431,2.8526,2.8582,2.8652,2.8736,2.8777,2.8846,2.8908,2.901,2.9018,2.9069,2.9106,2.9149,2.9201,2.9152,2.9155,2.9161,2.9296,2.9292,2.9302,2.9215,2.9218,2.9219,2.929,0,2.83,2.8426,2.8476,2.8578,2.8645,2.8685,2.8746,2.8812,2.8859,2.8923,2.8975,2.9048,2.9051,2.9083,2.9128,2.9185,2.9229,2.918,2.9276,2.9279,2.9257,2.9315,2.9311,2.9374,2.93,2.9302,2.9303,0,2.8383,2.8454,2.8563,2.8652,2.8682,2.8736,2.8819,2.8879,2.8956,2.8987,2.9044,2.9078,2.9155,2.9143,2.9251,2.9217,2.9259,2.9293,2.9297,2.931,2.9295,2.9332,2.9395,2.9406,2.9319,2.9317,2.9316,0,2.8393,2.8515,2.8597,2.8635,2.874,2.8778,2.8824,2.8899,2.8947,2.902,2.9053,2.9133,2.9178,2.924,2.9295,2.9281,2.9399,2.9391,2.9429,2.9428,2.9454,2.9452,2.9528,2.9477,2.9476,2.9476,2.9476,0,2.8453,2.8519,2.8603,2.8654,2.873,2.8787,2.8861,2.891,2.8977,2.9039,2.9078,2.9136,2.9204,2.9271,2.9315,2.94,2.9419,2.9448,2.9459,2.9446,2.9443,2.9476,2.9474,2.9479,2.9478,2.9478,2.9477,0,2.8477,2.8536,2.8629,2.8721,2.8746,2.8798,2.8879,2.893,2.8978,2.9057,2.9079,2.9155,2.9236,2.9297,2.9402,2.9432,2.9523,2.9533,2.9497,2.9503,2.9539,2.9536,2.9641,2.9659,2.9593,2.9593,2.9594,0,2.8513,2.8565,2.8663,2.8707,2.8753,2.8823,2.8873,2.8932,2.8982,2.9074,2.9116,2.9199,2.927,2.9398,2.9464,2.9545,2.956,2.9591,2.9573,2.9559,2.9564,2.9562,2.9569,2.9594,2.9595,2.9595,2.9595,0,2.8571,2.8597,2.8667,2.8748,2.8806,2.8873,2.894,2.8974,2.9045,2.91,2.9184,2.9238,2.9346,2.943,2.9519,2.9568,2.9595,2.96,2.9614,2.9603,2.9581,2.9596,2.9507,2.9598,2.9598,2.9598,2.9598,2.9597,2.8604,2.8653,2.8731,2.8808,2.8865,2.8927,2.8981,2.9036,2.9106,2.9199,2.9229,2.9316,2.9393,2.9515,2.9564,2.9635,2.9635,2.9654,2.9659,2.9664,2.9665,2.9567,2.965,2.965,2.965,2.965,2.965,0,2.8667,2.8718,2.8789,2.8882,2.8943,2.8961,2.9037,2.9088,2.9164,2.9233,2.9302,2.94,2.9482,2.9554,2.9639,2.9682,2.9697,2.9703,2.9702,2.9713,2.9658,2.9639,2.9689,2.9689,2.9689,2.9689,2.9689,2.9689,2.8707,2.8792,2.8828,2.8942,2.8994,2.9079,2.9121,2.918,2.9236,2.9343,2.9411,2.9457,2.9529,2.962,2.9697,2.9716,2.9747,2.9751,2.9773,2.9721,2.9716,2.9712,2.9695,2.9756,2.9756,2.9823,2.9824,2.9824]}]]